Location: Hamilton
(37.7830°S, 175.2830°E)
Time: 16:47:48
(UTC+13:00)

Cosmos 2315 Rocket - Pass Details

Date: 24 January 2019
Orbit: 966 x 1001 km, 82.9° (Epoch: 18 February)

Event Time Altitude Azimuth Distance (km) Brightness Sun altitude
Rises 21:57:26 0° 188° (S) 3,743 7.8 -14.1°
Reaches altitude 10° 21:59:59 10° 187° (S) 2,782 7.1 -14.5°
Maximum altitude 22:06:24 88° 273° (W) 998 4.0 -15.5°
Enters shadow 22:12:15 12° 4° (N) 2,568 5.8 -16.3°
